| time (UTC) | temp C | wind direction | speed KPH | gust KPH | rain 1hr cm | rain 24hr cm | rain mn cm | humidity % | barometer mb |
| 20260505023104 | 13 | 298 | 0.0 | 3.2 | 0.00 | 0.00 | 0.00 | 77 | 1007.2 |
| 20260505021553 | 15 | 298 | 0.0 | 1.6 | 0.00 | 0.00 | 0.00 | 75 | 1007.0 |
| 20260505020053 | 15 | 298 | 1.6 | 4.8 | 0.00 | 0.00 | 0.00 | 71 | 1007.1 |
| 20260505014551 | 16 | 274 | 1.6 | 3.2 | 0.00 | 0.00 | 0.00 | 69 | 1007.2 |
| 20260505013051 | 16 | 274 | 1.6 | 4.8 | 0.00 | 0.00 | 0.00 | 67 | 1007.1 |
| 20260505011558 | 17 | 212 | 8.0 | 35.4 | 0.00 | 0.00 | 0.00 | 62 | 1007.0 |
| 20260505010052 | 18 | 216 | 3.2 | 12.9 | 0.00 | 0.00 | 0.00 | 49 | 1006.8 |
| 20260505004554 | 19 | 203 | 4.8 | 9.7 | 0.00 | 0.00 | 0.00 | 49 | 1006.6 |
| 20260505003049 | 19 | 245 | 3.2 | 16.1 | 0.00 | 0.00 | 0.00 | 46 | 1006.6 |
| 20260505001548 | 20 | 221 | 4.8 | 12.9 | 0.00 | 0.00 | 0.00 | 45 | 1006.4 |
| 20260505000049 | 20 | 229 | 9.7 | 19.3 | 0.00 | 0.00 | 0.00 | 43 | 1006.3 |
| 20260504234611 | 20 | 260 | 8.0 | 22.5 | 0.00 | 0.00 | 0.00 | 45 | 1006.2 |
| 20260504233050 | 21 | 198 | 8.0 | 27.4 | 0.00 | 0.00 | 0.00 | 46 | 1006.0 |
| 20260504231554 | 21 | 193 | 8.0 | 24.1 | 0.00 | 0.00 | 0.00 | 46 | 1005.9 |
| 20260504230046 | 21 | 265 | 14.5 | 22.5 | 0.00 | 0.00 | 0.00 | 44 | 1005.8 |
| 20260504224546 | 21 | 232 | 12.9 | 30.6 | 0.00 | 0.00 | 0.00 | 43 | 1005.8 |
| 20260504223045 | 21 | 239 | 11.3 | 32.2 | 0.00 | 0.00 | 0.00 | 44 | 1005.8 |
| 20260504221549 | 22 | 196 | 12.9 | 30.6 | 0.00 | 0.00 | 0.00 | 42 | 1005.6 |
| 20260504220042 | 23 | 219 | 11.3 | 29.0 | 0.00 | 0.00 | 0.00 | 42 | 1005.7 |
| 20260504214542 | 23 | 176 | 11.3 | 25.7 | 0.00 | 0.00 | 0.00 | 40 | 1005.7 |
| 20260504213043 | 23 | 261 | 12.9 | 30.6 | 0.00 | 0.00 | 0.00 | 38 | 1005.6 |
| 20260504211539 | 23 | 211 | 12.9 | 29.0 | 0.00 | 0.00 | 0.00 | 37 | 1005.7 |
| 20260504210036 | 23 | 238 | 11.3 | 27.4 | 0.00 | 0.00 | 0.00 | 36 | 1005.9 |
| 20260504204612 | 23 | 238 | 12.9 | 27.4 | 0.00 | 0.00 | 0.00 | 39 | 1006.0 |
| 20260504203032 | 23 | 241 | 8.0 | 30.6 | 0.00 | 0.00 | 0.00 | 43 | 1006.2 |
| 20260504201529 | 21 | 203 | 8.0 | 22.5 | 0.00 | 0.00 | 0.00 | 42 | 1006.3 |
| 20260504200033 | 22 | 248 | 12.9 | 27.4 | 0.00 | 0.00 | 0.00 | 40 | 1006.5 |
| 20260504194525 | 22 | 224 | 16.1 | 29.0 | 0.00 | 0.00 | 0.00 | 37 | 1006.6 |
| 20260504193025 | 22 | 199 | 11.3 | 35.4 | 0.00 | 0.00 | 0.00 | 36 | 1006.9 |
| 20260504191521 | 22 | 231 | 14.5 | 25.7 | 0.00 | 0.00 | 0.00 | 35 | 1007.1 |
| 20260504190017 | 22 | 156 | 8.0 | 19.3 | 0.00 | 0.00 | 0.00 | 41 | 1007.2 |
| 20260504184514 | 22 | 221 | 17.7 | 30.6 | 0.00 | 0.00 | 0.00 | 36 | 1007.5 |
| 20260504183012 | 22 | 218 | 9.7 | 33.8 | 0.00 | 0.00 | 0.00 | 38 | 1007.8 |
| 20260504181511 | 21 | 192 | 11.3 | 30.6 | 0.00 | 0.00 | 0.00 | 43 | 1008.0 |
| 20260504180006 | 21 | 214 | 16.1 | 27.4 | 0.00 | 0.00 | 0.00 | 43 | 1008.1 |
| 20260504174505 | 20 | 244 | 14.5 | 33.8 | 0.00 | 0.00 | 0.00 | 44 | 1008.4 |
| 20260504173002 | 21 | 221 | 16.1 | 33.8 | 0.00 | 0.00 | 0.00 | 44 | 1008.6 |
| 20260504171505 | 20 | 250 | 17.7 | 27.4 | 0.00 | 0.00 | 0.00 | 42 | 1008.9 |
| 20260504081553 | 1 | 183 | 1.6 | 3.2 | 0.00 | 0.00 | 0.00 | 84 | 1012.5 |
| 20260504050021 | 4 | 180 | 0.0 | 3.2 | 0.00 | 0.00 | 0.00 | 72 | 1013.3 |
| 20260504044525 | 4 | 239 | 0.0 | 3.2 | 0.00 | 0.00 | 0.00 | 71 | 1013.3 |
| 20260504043019 | 4 | 239 | 0.0 | 4.8 | 0.00 | 0.00 | 0.00 | 71 | 1013.2 |
| 20260504041515 | 4 | 255 | 0.0 | 3.2 | 0.00 | 0.00 | 0.00 | 70 | 1013.2 |
| 20260504040011 | 5 | 244 | 0.0 | 3.2 | 0.00 | 0.00 | 0.00 | 68 | 1013.3 |
| 20260504034508 | 5 | 230 | 1.6 | 4.8 | 0.00 | 0.00 | 0.00 | 68 | 1013.1 |
| 20260504033042 | 5 | 245 | 0.0 | 3.2 | 0.00 | 0.00 | 0.00 | 65 | 1013.1 |
| 20260504031540 | 5 | 217 | 1.6 | 4.8 | 0.00 | 0.00 | 0.00 | 66 | 1013.1 |
| 20260504030044 | 5 | 248 | 0.0 | 0.0 | 0.00 | 0.00 | 0.00 | 1013.0 |